Tracking 23731 objects as of 26-Sep-2021
HD Live streaming from Space Station
objects crossing your sky now

STARLINK-1992

Track STARLINK-1992 now!
10-day predictions
STARLINK-1992 is classified as:


NORAD ID: 47632
Int'l Code: 2021-012N
Perigee: 396.4 km
Apogee: 398.2 km
Inclination: 53.0 °
Period: 92.4 minutes
Semi major axis: 6768 km
RCS: Unknown
Launch date: February 16, 2021
Source: United States (US)
Launch site: AIR FORCE EASTERN TEST RANGE (AFETR)
aabbcc
Your satellite tracking list
Your tracking list is empty




NASA's NSSDC Master Catalog

Two Line Element Set (TLE):
1 47632U 21012N   21269.66670139 -.01087777  00000-0 -15037-1 0  9992
2 47632  53.0413  75.8059 0001363  61.0665  84.2510 15.59140590  3687
Source of the keplerian elements: AFSPC